Probability
0 0 0 0 0 0 0 0 0 0 0 0 0 0 0 0 0 0 0 0 0 0 0 0 0 0 0 0 0 0 0 0 0 0 0 0 0 0 0 0 0 0 0 0
0 0 0 0 0 0 0 0 0 0 0 0 0 0 0 0 0 0 0 0 0 0 0 0 0 0 0 0 0 0 0 0 0 0 0 0 0 0 0 0 0 0 0 0
0 0 0 0 0 0 0 0 0 0 0 0 0 0 0 0 0 0 0 0 0 0 0 0 0 0 0 0 0 0 0 0 0 0 0 0 0 0 0 0 0 0 0 0
0 0 0 0 0 0 0 0 0 0 0 0 0 0 0 0 0 0 0 0 0 0 0 0 0 0 0 0 0 0 0 0 0 0 0 0 0 0 0 0 0 0 0 0
0 0 0 0 0 0 0 0 0 0 0 0 0 0 0 0 0 0 0 0 0 0 0 0 0 0 0 0 0 0 0 0 0 0 0 0 0 0 0 0 0 0 0 0
0 0 0 0 0 0 0 0 0 0 0 0 0 0 0 0 0 0 0 0 0 0 0 0 0 0 0 0 0 0 0 0 0 0 0 0 0 0 0 0 0 0 0 0
0 0 0 0 0 0 0 0 0 0 0 0 0 0 0 0 0 0 0 0 0 0 0 0 0 0 0 0 0 0 0 0 0 0 0 0 0 0 0 0 0 0 0 0
0 0 0 0 0 0 0 0 0 0 0 0 0 0 0 0 0 0 0 0 0 0 0 0 0 0 0 0 0 0 0 0 0 0 0 0 0 0 0 0 0 0 0 0
0 0 0 0 0 0 0 0 0 0 0 0 0 0 0 0 0 0 0 0 0 0 0 0 0 0 0 0 0 0 0 0 0 0 0 0 0 0 0 0 0 0 0 0
0 0 0 0 0 0 0 0 0 0 0 0 0 0 0 0 0 0 0 0 0 0 0 0 0 0 0 0 0 0 0 0 0 0 0 0 0 0 0 0 0 0 0 0
0 0 0 0 0 0 0 0 0 0 0 0 0 0 0 0 0 0 0 0 0 0 0 0 0 0 0 0 0 0 0 0 0 0 0 0 0 0 0 0 0 0 0 0
0 0 0 0 0 0 0 0 0 0 0 0 0 0 0 0 0 0 0 0 0 0 0 0 0 0 0 0 0 0 0 0 0 0 0 0 0 0 0 0 0 0 0 0
0 0 0 0 0 0 0 0 0 0 0 0 0 0 0 0 0 0 0 0 0 0 0 0 0 0 0 0 0 0 0 0 0 0 0 0 0 0 0 0 0 0 0 0
0 0 0 0 0 0 0 0 0 0 0 0 0 0 0 0 0 0 0 0 0 0 0 0 0 0 0 0 0 0 0 0 0 0 0 0 0 0 0 0 0 0 0 0
0 0 0 0 0 0 0 0 0 0 0 0 0 0 0 0 0 0 0 0 0 0 0 0 0 0 0 0 0 0 0 0 0 0 0 0 0 0 0 0 0 0 0 0
0 0 0 0 0 0 0 0 0 0 0 0 0 0 0 0 0 0 0 0 0 0 0 0 0 0 0 0 0 0 0 0 0 0 0 0 0 0 0 0 0 0 0 0
0 0 0 0 0 0 0 0 0 0 0 0 0 0 0 0 0 0 0 0 0 0 0 0 0 0 0 0 0 0 0 0 0 0 0 0 0 0 0 0 0 0 0 0
0 0 0 0 0 0 0 0 0 0 0 0 0 0 0 0 0 0 0 0 0 0 0 0 0 0 0 0 0 0 0 0 0 0 0 0 0 0 0 0 0 0 0 0
0 0 0 0 0 0 0 0 0 0 0 0 0 0 0 0 0 0 0 0 0 0 0 0 0 0 0 0 0 0 0 0 0 0 0 0 0 0 0 0 0 0 0 0
0 0 0 0 0 0 0 0 0 0 0 0 0 0 0 0 0 0 0 0 0 0 0 0 0 0 0 0 0 0 0 0 0 0 0 0 0 0 0 0 0 0 0 0
0 0 0 0 0 0 0 0 0 0 0 0 0 0 0 0 0 0 0 0 0 0 0 0 0 0 0 0 0 0 0 0 0 0 0 0 0 0 0 0 0 0 0 0
0 0 0 0 0 0 0 0 0 0 0 0 0 0 0 0 0 0 0 0 0 0 0 0 0 0 0 0 0 0 0 0 0 0 0 0 0 0 0 0 0 0 0 0
0 0 0 0 0 0 0 0 0 0 0 0 0 0 0 0 0 0 0 0 0 0 0 0 0 0 0 0 0 0 0 0 0 0 0 0 0 0 0 0 0 0 0 0
0 0 0 0 0 0 0 0 0 0 0 0 0 0 0 0 0 0 0 0 0 0 0 0 0 0 0 0 0 0 0 0 0 0 0 0 0 0 0 0 0 0 0 0
0 0 0 0 0 0 0 0 0 0 0 0 0 0 0 0 0 0 0 0 0 0 0 0 0 0 0 0 0 0 0 0 0 0 0 0 0 0 0 0 0 0 0 0
0 0 0 0 0 0 0 0 0 0 0 0 0 0 0 0 0 0 0 0 0 0 0 0 0 0 0 0 0 0 0 0 0 0 0 0 0 0 0 0 0 0 0 0
0 0 0 0 0 0 0 0 0 0 0 0 0 0 0 0 0 0 0 0 0 0 0 0 0 0 0 0 0 0 0 0 0 0 0 0 0 0 0 0 0 0 0 0
Wind_Speed
6 6 4 6 6 6 9 9 9 8 7 10 7 5 4 4 4 3 3 3 3 3 3 2 2 2 2 2 2 1 1 1 2 2 2 2 2 2 2 2 2 2 3 3
5 5 5 7 7 7 9 8 9 9 11 8 6 4 4 4 3 3 4 4 4 4 4 3 3 3 3 2 2 2 1 2 2 2 2 2 2 2 2 2 1 2 2 3
5 4 3 8 9 9 6 5 6 9 11 6 6 6 5 4 3 3 4 5 5 5 4 4 3 3 3 3 2 2 2 2 2 2 2 2 2 1 2 1 1 1 2 2
2 2 7 7 2 6 7 6 6 6 6 5 5 5 3 2 3 4 5 5 5 5 4 3 3 3 2 2 1 1 2 2 2 2 2 2 2 1 2 1 1 2 2 2
2 4 9 6 2 3 5 6 5 7 7 6 5 3 2 3 3 4 4 4 4 4 4 3 3 3 2 2 1 1 2 2 2 2 2 2 2 2 2 1 1 1 1 1
4 4 8 6 2 2 2 5 3 4 5 4 2 2 5 5 4 4 4 4 5 4 4 3 3 2 2 2 2 2 3 3 2 2 2 2 2 2 1 1 1 1 1 1
6 7 10 6 2 2 4 6 3 1 1 1 2 3 4 5 4 4 4 5 5 4 3 3 3 2 2 2 3 4 3 2 2 2 2 2 2 2 1 1 1 0 1 1
5 7 11 1 3 4 4 2 1 1 1 2 3 3 3 4 4 5 5 5 4 4 4 4 3 2 2 3 4 3 2 2 2 2 2 1 1 1 0 0 0 1 1 1
9 8 1 2 2 1 2 1 2 2 2 2 3 4 4 4 4 5 5 5 4 4 4 5 4 3 3 4 3 3 2 2 2 2 2 1 1 1 0 0 1 1 1 2
4 5 2 1 1 3 3 2 2 2 2 2 3 4 4 4 4 5 5 5 5 4 4 5 5 4 4 4 3 2 2 2 1 1 1 1 1 1 1 1 2 2 2 2
5 4 3 2 1 2 2 2 3 3 3 2 2 3 4 4 5 5 5 5 5 4 5 6 5 5 4 4 3 3 2 2 1 1 1 1 1 1 2 2 3 3 2 2
6 3 3 3 2 1 2 3 3 4 4 4 3 4 5 4 5 5 5 5 5 5 5 6 5 5 4 3 2 2 2 2 2 1 1 1 1 2 3 3 3 4 3 3
3 3 3 2 2 2 1 2 3 2 3 4 4 4 4 5 5 5 5 5 5 6 6 6 6 6 5 4 3 3 3 3 2 2 2 2 2 2 2 3 4 4 4 4
2 1 2 3 3 2 2 2 2 2 2 3 3 4 4 4 5 5 6 6 6 6 6 5 5 6 5 4 3 3 3 3 3 2 2 2 2 2 2 2 2 3 3 4
3 2 3 2 1 2 2 2 2 2 3 3 3 3 3 4 5 6 6 6 5 5 5 5 5 6 5 4 4 4 3 3 2 2 2 2 2 2 2 2 2 2 2 3
2 1 1 1 2 2 1 1 2 3 3 4 4 4 4 4 5 6 5 4 4 6 6 6 6 6 5 4 4 3 3 4 3 2 2 2 2 2 2 2 2 2 2 2
2 2 3 3 4 3 2 2 3 3 3 4 5 5 4 4 5 5 5 4 4 5 5 5 6 5 4 4 4 3 2 3 3 2 2 2 2 2 2 2 2 2 3 3
3 4 3 4 4 4 3 3 3 3 4 4 4 4 4 4 5 6 6 5 5 5 5 5 5 4 4 4 3 2 2 2 2 2 2 2 2 2 2 2 2 3 2 3
2 3 2 3 3 3 3 3 3 3 3 3 3 4 5 5 5 5 5 5 5 6 6 5 6 4 4 4 3 2 2 2 2 2 1 2 2 2 2 2 2 2 2 2
2 1 2 2 2 2 3 3 3 3 3 2 2 3 4 5 4 4 4 5 4 4 5 6 5 4 4 4 3 2 2 2 2 2 1 1 2 2 2 2 2 2 2 2
2 1 1 2 2 2 2 2 2 3 3 2 2 4 5 5 4 4 4 5 5 4 5 5 4 3 3 3 2 1 1 2 2 2 2 2 2 2 2 2 3 3 3 3
2 1 2 2 2 3 3 2 2 2 3 3 3 3 3 4 4 4 4 4 5 6 5 4 3 4 4 3 2 2 2 2 2 2 2 2 2 2 3 3 3 3 3 3
2 2 2 2 2 2 3 2 2 2 2 3 3 4 4 4 3 3 5 4 4 6 5 4 5 6 6 3 2 2 2 2 2 2 2 3 3 3 3 3 3 3 3 3
2 2 2 2 1 1 3 3 2 2 2 3 3 4 3 3 3 3 4 5 6 6 5 5 7 7 5 3 2 2 2 2 2 2 3 3 3 3 3 3 3 3 4 4
2 2 2 2 2 2 3 3 3 3 2 3 3 4 3 2 3 4 4 4 6 6 5 6 7 7 4 3 3 3 3 3 3 3 3 3 3 3 3 3 3 4 4 4
1 1 2 2 2 2 2 2 2 2 2 3 4 3 3 2 3 3 3 4 5 5 4 4 4 4 3 3 3 3 3 3 3 3 3 4 4 4 4 4 4 4 4 4
2 2 2 2 2 2 2 2 2 3 3 3 4 4 3 3 3 3 4 3 4 4 4 4 3 3 3 3 3 3 3 3 4 4 4 4 4 4 4 5 4 4 4 4
Wind_Direction
261 272 252 250 251 221 218 225 228 244 247 272 287 288 295 306 320 337 330 329 323 316 315 317 320 319 314 310 319 314 286 270 272 280 268 259 261 263 259 244 233 227 222 225
275 268 262 266 257 236 235 238 244 263 269 278 293 308 312 312 315 315 316 321 323 322 323 319 313 309 311 308 312 312 280 281 301 312 304 284 274 270 265 253 244 233 231 229
267 290 312 267 236 212 213 217 210 237 256 288 303 301 300 302 307 313 318 322 318 315 312 312 308 300 285 292 308 300 290 305 317 311 305 298 287 278 270 263 255 244 246 239
267 353 243 243 181 188 203 226 223 245 271 273 270 285 287 312 329 322 322 320 319 317 317 316 319 316 312 326 309 288 299 312 322 317 305 311 310 291 298 304 269 253 256 253
187 244 270 281 233 178 203 251 230 242 267 289 293 305 292 351 350 323 322 320 316 319 317 321 328 329 336 337 325 316 312 311 315 309 306 313 309 303 306 308 288 284 280 267
191 219 241 256 258 228 160 263 261 233 255 285 355 300 286 335 342 338 344 343 338 338 337 340 337 341 340 327 325 308 302 301 303 298 289 284 288 299 312 299 290 304 316 318
211 233 256 264 275 123 184 260 318 240 249 259 231 245 295 332 339 342 347 347 348 345 341 334 341 349 326 322 306 310 314 316 316 308 297 292 301 313 324 324 350 338 313 327
192 222 250 245 129 180 235 311 345 325 304 294 290 309 329 335 337 342 347 345 347 345 335 337 348 346 319 309 313 323 317 316 314 312 305 305 302 308 338 173 197 257 291 309
201 217 249 130 184 265 342 324 329 321 317 311 312 315 326 329 333 337 337 335 341 337 329 334 343 340 313 316 324 321 312 299 301 312 307 302 277 272 276 210 221 243 243 260
235 250 252 269 337 358 2 349 340 337 324 328 310 313 317 318 326 331 331 334 337 334 325 323 331 331 313 318 321 308 290 285 291 293 298 305 290 264 230 222 223 230 233 246
249 277 308 281 303 309 338 354 348 340 341 335 320 312 313 316 319 319 322 328 328 322 314 313 320 319 317 322 320 305 290 282 279 273 273 285 286 271 260 255 228 225 228 228
239 234 231 256 293 316 315 316 321 326 333 339 330 312 317 314 316 317 317 320 319 317 314 312 312 309 313 314 306 294 288 283 278 274 276 280 290 313 305 289 279 260 254 245
248 275 249 249 302 337 316 313 323 325 314 322 333 333 323 316 318 317 313 313 311 310 309 306 305 304 307 306 297 281 276 272 269 263 259 260 264 270 294 311 302 289 277 269
274 263 253 257 276 311 316 328 347 343 326 326 331 335 326 319 317 313 309 308 307 306 306 303 299 299 305 301 288 279 276 267 261 255 252 250 251 255 258 266 283 289 288 277
280 252 239 263 293 332 357 10 2 329 327 329 327 317 312 309 305 304 306 309 310 307 305 305 302 302 309 300 288 281 277 272 264 261 254 249 249 249 248 253 259 275 301 312
275 253 207 234 264 297 340 344 309 303 314 317 314 308 302 296 295 296 300 306 307 304 302 300 297 301 303 297 291 285 281 284 280 263 259 254 247 242 242 248 255 258 267 277
204 230 231 247 258 269 274 273 273 286 300 299 296 302 309 310 308 305 306 305 295 291 292 290 294 300 300 295 287 286 286 287 284 271 256 254 252 247 243 241 245 252 261 260
229 235 229 229 240 258 274 279 275 275 276 283 296 306 306 302 297 299 305 313 313 308 300 294 292 299 301 297 291 290 290 288 286 275 266 258 259 258 251 244 247 254 269 277
237 244 254 254 250 246 253 261 267 272 280 283 291 291 291 290 290 297 312 320 315 309 310 310 314 319 303 295 299 285 279 281 288 293 283 272 270 264 260 257 257 260 263 259
274 268 260 272 273 248 257 268 275 285 286 278 287 297 301 300 302 305 309 300 291 289 302 308 310 303 295 294 306 288 277 274 278 289 290 279 270 271 267 264 263 262 258 258
281 279 271 269 282 286 271 269 273 283 293 288 273 280 290 300 307 307 305 302 304 309 311 309 309 306 302 305 304 294 284 283 285 287 287 280 274 269 264 262 262 261 259 257
280 273 272 271 282 302 306 301 283 281 293 296 290 290 298 304 307 305 290 281 300 318 321 317 317 317 318 320 314 304 294 290 289 290 289 284 276 272 270 264 261 263 262 258
295 291 289 286 282 299 317 316 299 287 288 291 291 292 291 293 298 298 300 304 313 320 322 314 316 320 326 337 327 316 307 301 296 291 287 283 273 267 267 268 263 258 260 260
320 321 314 315 331 327 317 314 314 304 295 296 291 285 286 298 302 286 284 305 318 320 319 316 320 327 336 336 325 319 312 306 302 298 293 288 280 271 268 269 272 266 258 257
311 319 329 335 326 300 294 308 321 323 322 315 311 306 295 280 279 297 307 310 315 321 320 322 328 332 334 328 323 316 311 306 303 301 297 294 293 288 280 276 276 277 271 263
327 318 307 297 287 293 301 308 310 312 316 317 318 314 311 307 300 302 310 315 317 320 320 320 323 325 326 322 316 310 307 308 306 299 293 291 292 292 290 287 285 281 281 278
326 315 315 317 309 296 294 294 293 296 296 296 302 307 311 315 316 316 316 316 318 320 319 317 317 318 318 316 313 310 307 304 300 296 293 290 289 288 290 289 285 282 281 280